OBJECT C, 65940

Orbit data source: Space-Track

You're viewing an Uncataloged Satellite

Recently launched and/or uncataloged satellites may have evolving metadata. Metadata may include but not limited to: Owner, Maufacturer, Bus, Motor, and Mission.

OBJECT C, 65940 is a satellite owned by Shikong Daoyu (CN) in SSO that was launched on Sat, 11 Oct 2025 UTC via a YINLI-1 launch vehicle from the Yellow Sea Launch Area, China (YSLA). Unknown objects in Earth's orbit typically refer to objects detected orbiting the Earth but have not yet been identified or cataloged. These objects could be anything from previously untracked satellites, spent rocket stages, debris from satellite collisions, or even natural meteoroids temporarily captured by Earth's gravity.

Loading next visibility...
Identifier
65940, 2025-226C
Orbit
SSO
Country
Flag of CNCN / PRC
Related business
Flag of CNShikong Daoyi Keji YG (CN)
Manufacturer
GWCG
Mission
Operational spacecraft
Bus & Motor
GSP50, Unknown motor
Mass
~50 kg wet, ~50 kg dry
Launch date (UTC)
2025-10-11 (1 week ago)
Launch vehicle
YINLI-1
Launch site
Yellow Sea Launch Area, China (YSLA)
Object type
Unknown
Shape & HBR
Unknown
Radar Cross Section
RCS unknown

Expand to show TLE details & history
Last TLE update: 15 hours ago

TLE from 15 hours ago
0 OBJECT C
1 65940U 25226C   25290.49764632  .00013980  00000-0  82952-3 0  9990
2 65940  97.6592   4.6381 0014065 259.1146 100.8501 15.11373721   961
Epoch: 2025-10-17T11:56Z
TLE epoch observation values (Epoch: 2025-10-17T11:56:36.642Z)
Latitude
-0.00001°
Longitude
159.24326°
Altitude
536.924 km
Speed
7.593 km/s
True Right ascension
00h 18m 33s
True Declination
0° 00' 00"
Sunlit
Object was in full shadow at epoch
Visualization orbit readout
Latitude
Unknown
Longitude
Unknown
Altitude
Unknown
Speed
Unknown
Apparent Right ascension
Unknown
Apparent Declination
Unknown
Sunlit
N/A
Visualization observer readout
Local Sidereal Time
21:30:25
Azimuth
Unknown
Elevation
Unknown
Doppler factor
Unknown
Orbital elements
Apogee altitude
538.713 km
Perigee altitude
519.283 km
Semi-major axis
6,907.135 km
Eccentricity
0.00141
Inclination
97.6592°
RAAN
4.6381°
Arg. of periapsis
259.1146°
True anomaly
101.00834°
Mean anomaly
100.8501°
Eccentric anomaly
100.92922°
Mean motion
3.78091 °/min
Orbital period
95.22 mins
BSTAR
0.00082952
Loading maneuver chart data...
Computing Atmospheric mass density...
Loading historical data...
Loading historical data...
Loading historical data...
Loading historical data...
Loading historical data...
Loading historical data...
Loading historical data...
Other satellites on launch #226 in the year 2025 (2025-10-11 UTC)

Documentation

Showing up to 5 results
|